Volver al catálogo

SL-8 DEB

ActivoPO
NORAD 27737·DEBRIS·🇷🇺 Russia

Lanzado Dec 17, 1981 desde Plesetsk Cosmodrome

Loading…

Próximos Pases (próximas 24 horas)

TLE

ActualizadoSource: Space-Track

Época: Sep 13, 2026, 12:55 UTC

1 27737U 81120J   26256.53822608  .00000100  00000-0  10169-2 0  9993
2 27737  82.9638 348.7596 0025908 284.8866  89.5577 12.08197987580222

Sigue SL-8 DEB en tiempo real con AllMySat

Download on the App Store